Location: Cucq
(50.4773°N, 1.6202°E)
Time: 08:16:03
(UTC+00:00)

ERBS - Pass Details

Date: 07 August 2020
Orbit: 413 x 419 km, 57.0° (Epoch: 26 September)

Event Time Altitude Azimuth Distance (km) Brightness Sun altitude
Rises 01:15:52 0° 302° (WNW) 2,358 6.2 -21.1°
Reaches altitude 10° 01:17:59 10° 306° (NW) 1,492 5.2 -21.0°
Maximum altitude 01:21:17 60° 27° (NNE) 478 2.7 -20.8°
Drops below altitude 10° 01:24:34 10° 109° (ESE) 1,485 5.0 -20.6°
Sets 01:26:40 0° 113° (ESE) 2,345 6.0 -20.5°
